Regional Weather Roundup
Issued by NWS Goodland, KS

Home | Current Version | Previous Version | Text Only | Print | Product List | Glossary Off
Versions: 1 2 3 4 5 6 7 8 9 10 11 12 13 14 15 16 17 18 19 20 21 22 23 24 25 26 27 28 29 30 31 32 33 34 35 36 37 38 39 40 41 42 43 44 45 46 47 48 49 50

000
ASUS43 KGLD 280408
RWRGLD

GOODLAND FORECAST AREA HOURLY WEATHER ROUNDUP
NATIONAL WEATHER SERVICE GOODLAND KS
1000 PM MDT SUN JUL 27 2014

...OFFICIAL OBSERVATIONS...

CITY           SKY/WX    TMP DP  RH WIND       PRES   REMARKS
GOODLAND KS    PTCLDY    67  53  61 S8        30.31R
HILL CITY KS   PTCLDY    70  55  59 CALM      30.24R
IMPERIAL NEB   MOCLDY    69  54  58 SE5       30.29R
MCCOOK NEB     CLEAR     69  54  58 NE5       30.26R
AKRON CO       MOCLDY    72  47  40 E15       30.35R
BURLINGTON CO  CLOUDY    70  50  49 S7        30.32S
LIMON CO       LGT RAIN  68  61  78 S13       30.40R
$$

...UNOFFICIAL OBSERVATIONS...

CITY           SKY/WX    TMP DP  RH WIND       PRES   REMARKS
COLBY KS       CLEAR     66  57  72 E7        30.29S
LENORA KS        N/A     74  32  21 MISG        N/A
NORTON KS      CLEAR     64  48  55 CALM      30.24S
OBERLIN KS     FAIR      70  52  52 E5        30.26R
ST FRANCIS KS  MOCLDY    68  46  45 SE7       30.30R
TRIBUNE KS     MOCLDY    66 N/A N/A SE7       30.31F
WAKEENEY KS      N/A     70  45  40 MISG        N/A
TRENTON NEB      N/A     73  32  22 E8          N/A
KIT CARSON CO    N/A     74  55  51 N6          N/A
WRAY CO          N/A     73  48  40 E6        30.30R
YUMA CO          N/A     69  50  50 E5          N/A
$$


USA.gov is the U.S. government's official web portal to all federal, state and local government web resources and services.